User: anonymous   Login
Location: Ferma
(41.9500°N, 44.5167°E)
Time: 11:28:30
(UTC+00:00)
Language:

Cosmos 1140 Rocket - Orbit

View from above orbital plane
View from above orbital plane
View from above satellite
View from above satellite

Ground track
Ground track

The orbit data is extracted from the following two-line orbital elements,

1 11574U 79089B   22017.93244653  .00000024  00000-0  15700-4 0  9992
2 11574  74.0704   5.4670 0016570 207.6962 152.3313 14.40842790218272
Epoch (UTC): 17 January 2022 22:22:43
Eccentricity: 0.0016570
inclination: 74.0704°
perigee height: 744 km
apogee height: 767 km
right ascension of ascending node: 5.4670°
argument of perigee: 207.6962°
revolutions per day: 14.40842790
mean anomaly at epoch: 152.3313°
orbit number at epoch: 21827

The dashed part of the orbit path shows where the satellite is in the earth's shadow,  

DLR